Location: Grange Verzio
(44.5000°N, 6.9833°E)
Time: 17:56:18
(UTC+00:00)

Cosmos 1340 Rocket - Pass Details

Date: 01 February 2023
Orbit: 514 x 558 km, 81.2° (Epoch: 29 March)

Event Time Altitude Azimuth Distance (km) Brightness Sun altitude
Rises 17:21:04 0° 184° (S) 2,622 6.6 -7.6°
Reaches altitude 10° 17:23:10 10° 183° (S) 1,743 5.6 -8.0°
Maximum altitude 17:26:59 74° 98° (E) 548 2.6 -8.6°
Drops below altitude 10° 17:30:53 10° 14° (NNE) 1,779 5.1 -9.3°
Sets 17:33:03 0° 13° (NNE) 2,681 6.1 -9.7°
